User: anonymous   Login
Location: Muenchen
(48.1800°N, 11.5800°E)
Time: 23:10:48
(UTC+01:00)
Language:

Iridium 37 - Orbit

View from above orbital plane
View from above orbital plane
View from above satellite
View from above satellite

Ground track
Ground track

The orbit data is extracted from the following two-line orbital elements,

1 24968U 97056D   17055.36393119  .00000178  00000-0  56643-4 0  9993
2 24968  86.3995   6.0400 0002219  86.9722 273.1727 14.34213592 16368
Epoch (UTC): 24 February 2017 08:44:03
Eccentricity: 0.0002219
inclination: 86.3995°
perigee height: 776 km
apogee height: 779 km
right ascension of ascending node: 6.0400°
argument of perigee: 86.9722°
revolutions per day: 14.34213592
mean anomaly at epoch: 273.1727°
orbit number at epoch: 1636

The dashed part of the orbit path shows where the satellite is in the earth's shadow,  

DLR